SCP
1 1 1 1 1 1 0 0 0 0 1 1 1 2 3 3 3 3 4 5 6 7 7 5 4 4 4 3 3 3 2 2 2 2 2 2 2 2 2 2 2 2 2 2
1 1 1 1 1 1 1 0 0 0 1 1 1 2 3 3 3 4 4 5 5 6 5 5 4 4 3 3 3 3 2 2 2 2 2 2 2 2 2 2 2 2 2 2
0 0 1 1 1 1 1 1 1 0 1 1 2 2 3 3 4 4 4 5 5 5 4 4 4 4 4 4 3 3 3 2 2 2 2 2 2 2 2 2 2 2 3 3
0 0 0 1 1 1 1 1 1 1 1 2 3 3 3 3 3 4 4 5 5 4 5 5 5 6 5 4 3 3 3 2 2 2 2 2 2 2 3 3 3 3 3 3
0 0 0 0 1 1 1 2 1 1 2 3 4 4 3 3 3 3 4 5 5 5 5 6 6 7 6 5 4 3 2 2 2 2 2 2 2 3 3 3 3 3 3 3
0 0 0 1 1 1 1 2 2 1 2 3 4 3 3 3 3 4 5 4 4 4 5 5 5 6 6 5 4 3 2 2 2 2 2 2 2 3 3 3 3 3 3 2
0 0 0 1 1 1 1 2 2 1 5 7 5 3 3 3 3 4 4 4 3 3 3 3 4 5 6 5 4 3 2 2 2 2 2 2 2 3 3 3 3 3 2 2
0 0 0 1 2 2 1 1 2 2 7 12 7 3 3 3 3 3 3 3 3 3 2 3 3 4 5 4 4 3 2 2 2 2 2 2 2 3 3 3 3 3 2 2
0 0 1 1 2 2 2 2 2 2 5 8 6 3 3 3 3 2 2 2 2 2 2 2 3 4 4 4 3 3 3 2 2 2 2 2 2 2 3 3 3 3 3 3
0 0 1 1 2 2 2 3 3 3 3 3 3 3 3 3 3 2 2 2 2 2 2 2 2 3 4 3 3 3 2 2 2 2 2 2 1 1 2 2 3 4 4 4
0 0 1 1 2 2 2 3 3 3 3 3 3 2 3 3 3 2 2 2 2 2 2 2 2 3 3 3 3 2 2 2 1 1 1 1 1 1 1 1 2 3 3 3
0 0 0 1 1 2 2 2 2 3 3 2 2 2 2 2 2 2 2 2 2 2 2 3 3 3 3 4 3 2 1 1 1 1 1 1 1 1 1 0 1 1 2 2
0 0 0 1 1 2 2 2 2 2 2 2 1 1 1 2 2 2 3 3 3 2 2 3 3 4 4 4 3 2 1 1 1 1 1 1 1 1 1 1 1 0 0 0
0 0 0 1 1 2 2 2 2 1 1 1 1 1 1 1 1 2 3 3 3 2 2 3 3 4 4 4 4 2 1 1 1 1 1 1 1 1 1 1 1 1 0 0
0 0 0 1 1 1 1 1 1 1 1 1 1 1 1 1 1 2 3 3 2 2 2 2 3 3 3 3 3 2 1 1 1 1 1 1 1 1 1 1 1 1 1 1
0 0 0 1 1 1 1 1 1 1 1 1 1 1 1 1 1 1 2 2 2 1 1 1 1 2 2 2 2 1 1 1 1 1 1 1 1 1 1 1 1 1 1 1
0 0 0 1 1 0 1 1 1 1 1 1 1 1 1 1 1 1 1 1 1 1 1 0 1 0 0 1 1 0 0 0 0 0 0 0 0 1 1 1 1 1 1 1
0 0 0 0 0 0 0 0 0 1 1 1 1 1 1 1 0 0 0 0 0 0 0 0 0 0 0 0 0 0 0 0 0 0 0 0 0 0 0 0 0 0 0 0
0 0 0 0 0 0 0 0 0 0 0 1 1 1 1 1 0 0 0 0 0 0 0 0 0 0 0 0 0 0 0 0 0 0 0 0 0 0 0 0 0 0 0 0
0 0 0 0 0 0 0 0 0 0 0 0 0 0 0 0 0 0 0 0 0 0 0 0 0 0 0 0 0 0 0 0 0 0 0 0 0 0 0 0 0 0 0 0
0 0 0 0 0 0 0 0 0 0 0 0 0 0 0 0 0 0 0 0 0 0 0 0 0 0 0 0 0 0 0 0 0 0 0 0 0 0 0 0 0 0 0 0
0 0 0 0 0 0 0 0 0 0 0 0 0 0 0 0 0 0 0 0 0 0 0 0 0 0 0 0 0 0 0 0 0 0 0 0 0 0 0 0 0 0 0 0
0 0 0 0 0 0 0 0 0 0 0 0 0 0 0 0 0 0 0 0 0 0 0 0 0 0 0 0 0 0 0 0 0 0 0 0 0 0 0 0 0 0 0 0
0 0 0 0 0 0 0 0 0 0 0 0 0 0 0 0 0 0 0 0 0 0 0 0 0 0 0 0 0 0 0 0 0 0 0 0 0 0 0 0 0 0 0 0
0 0 0 0 0 0 0 0 0 0 0 0 0 0 0 0 0 0 0 0 0 0 0 0 0 0 0 0 0 0 0 0 0 0 0 0 0 0 0 0 0 0 0 0
0 0 0 0 0 0 0 0 0 0 0 0 0 0 0 0 0 0 0 0 0 0 0 0 0 0 0 0 0 0 0 0 0 0 0 0 0 0 0 0 0 0 0 0
0 0 0 0 0 0 0 0 0 0 0 0 0 0 0 0 0 0 0 0 0 0 0 0 0 0 0 0 0 0 0 0 0 0 0 0 0 0 0 0 0 0 0 0
Wind_Speed
3 2 1 1 3 5 5 8 9 8 7 8 6 5 4 2 1 2 3 4 6 8 8 7 6 6 7 6 7 7 7 7 7 6 5 5 5 5 5 5 6 5 5 5
0 1 1 1 2 4 4 4 5 4 7 7 4 2 2 2 2 2 4 5 6 7 7 7 8 8 7 7 7 7 7 7 6 5 5 5 5 4 4 4 4 4 4 4
2 3 1 3 4 4 3 3 5 6 7 3 2 3 4 3 3 4 4 3 4 5 6 7 7 8 8 6 6 6 6 5 5 5 5 4 4 4 4 4 4 4 4 4
2 2 4 6 3 2 3 1 1 3 4 3 4 3 2 2 3 3 2 3 3 4 4 4 5 5 6 6 6 6 5 5 4 5 5 4 4 4 3 3 3 3 3 3
3 3 3 4 1 1 2 1 1 2 3 2 1 2 2 1 1 2 1 2 2 3 4 5 6 6 7 6 6 5 5 5 5 5 5 5 4 3 3 3 2 2 1 1
3 4 5 5 3 2 2 2 2 1 2 1 1 1 3 1 2 3 4 3 4 4 5 5 5 6 7 6 6 5 4 4 4 4 5 5 4 3 2 2 2 2 2 1
3 2 5 5 4 1 3 5 2 1 2 1 1 3 1 2 3 4 5 5 6 6 5 4 5 6 7 6 5 4 4 4 4 4 4 4 4 3 3 3 3 3 2 1
5 4 7 3 2 2 4 2 1 2 1 1 1 1 2 4 4 5 6 6 6 7 6 5 5 6 7 5 4 5 5 5 4 4 3 3 4 3 3 4 4 3 2 2
6 6 3 1 1 1 2 1 2 1 1 2 3 3 3 4 5 5 5 5 5 7 7 6 5 5 6 4 5 6 6 6 5 5 4 4 4 4 3 3 3 2 2 1
1 3 1 1 1 2 1 1 2 1 0 2 3 4 4 4 4 4 5 5 5 6 7 6 5 5 5 5 5 6 7 6 5 5 5 5 4 3 3 3 2 2 2 2
1 2 1 1 1 2 2 2 2 3 2 2 5 5 4 4 4 4 5 4 5 5 6 5 5 5 5 4 5 7 7 6 6 5 6 6 6 5 4 4 2 2 2 2
5 5 3 2 1 1 1 2 2 3 3 3 5 5 5 5 4 4 5 5 6 5 5 5 6 5 4 4 5 7 6 5 5 4 5 5 6 7 11 8 10 9 7 5
4 2 2 1 1 1 1 1 2 3 3 4 5 5 6 5 5 6 6 6 6 5 5 5 6 6 4 5 6 7 7 6 5 4 5 4 4 5 5 8 11 12 11 10
2 2 1 1 1 1 2 2 3 4 4 5 5 6 7 7 6 7 6 5 5 6 6 6 6 6 4 5 7 7 7 7 6 5 4 4 4 4 4 5 5 6 8 10
1 2 3 1 1 1 2 3 4 4 4 5 6 6 7 8 7 6 5 5 6 8 7 7 7 6 5 6 7 8 6 5 5 5 5 5 5 5 5 6 6 5 5 6
1 2 3 3 2 2 2 3 4 4 5 6 7 6 7 8 8 7 6 6 7 7 6 7 7 5 5 6 7 6 6 9 8 6 6 6 6 6 6 6 6 5 5 4
3 3 3 3 3 2 2 3 4 5 6 7 7 7 8 9 8 7 7 7 7 7 6 6 6 5 6 6 7 6 6 8 10 7 6 6 6 6 5 6 6 6 5 6
2 3 3 4 4 4 4 5 5 6 7 7 8 8 8 8 8 7 7 7 8 8 7 6 6 6 7 7 6 6 6 6 6 6 6 6 6 6 6 6 6 7 5 6
3 4 4 4 4 5 6 6 6 7 8 8 9 9 8 8 7 7 7 8 8 7 6 6 8 8 8 8 8 6 7 8 7 7 6 8 7 6 6 6 6 6 5 5
5 5 6 6 5 6 7 7 7 7 8 9 10 9 9 8 7 8 9 8 5 3 3 5 7 7 7 8 9 6 8 8 8 7 7 7 7 6 6 6 6 6 5 5
7 7 8 8 8 7 7 8 8 9 8 9 10 10 9 7 7 7 8 7 5 5 6 7 6 6 6 6 8 7 8 8 7 7 7 6 6 6 6 6 6 6 6 6
7 8 9 8 9 8 7 8 9 10 10 9 9 9 9 8 8 8 7 4 3 5 6 6 6 7 8 8 7 7 8 8 7 6 6 6 6 6 6 6 6 5 5 5
7 8 8 8 9 9 9 8 9 9 9 9 8 8 8 7 5 6 6 4 4 8 7 6 8 11 11 8 7 8 8 7 7 6 6 5 5 5 5 6 5 5 5 5
8 8 8 8 9 10 9 8 8 8 9 8 7 7 7 7 6 5 5 7 9 10 8 8 12 12 11 7 7 7 7 6 6 6 6 6 6 5 5 6 5 5 5 6
8 8 8 9 8 7 7 8 9 9 9 8 8 7 6 5 6 5 6 8 10 10 8 10 12 12 9 7 7 7 7 6 6 6 6 6 5 5 5 5 5 5 5 4
7 6 6 6 6 5 6 6 6 6 6 7 6 6 6 6 7 6 6 8 10 10 8 7 7 9 8 8 8 8 7 7 7 7 6 6 6 6 5 5 6 5 4 4
7 6 6 6 6 6 6 6 7 6 6 7 7 6 6 6 7 7 8 7 7 8 7 7 7 7 7 8 8 7 7 6 6 6 6 6 5 5 5 6 5 4 4 4
Wind_Direction
218 235 189 201 189 173 174 177 180 216 225 248 255 257 261 244 185 158 164 166 169 174 176 169 170 176 176 176 174 172 175 187 198 194 189 189 190 194 195 197 202 202 203 212
340 318 230 261 241 192 195 183 196 206 246 253 261 252 255 236 188 184 192 187 182 179 170 170 177 176 174 177 176 168 176 189 188 181 181 183 187 189 190 194 197 198 204 212
230 285 46 265 239 195 185 191 177 203 236 262 273 252 238 231 208 205 206 194 181 179 178 177 177 173 174 172 163 163 171 178 177 174 178 183 181 182 190 191 189 199 204 208
138 99 200 242 280 200 166 203 230 232 252 247 243 254 249 220 211 217 194 179 173 162 158 157 150 145 143 141 153 161 164 169 172 174 178 171 166 173 182 180 184 196 202 207
126 151 255 288 298 140 161 240 306 281 297 302 311 40 356 2 135 167 154 138 136 138 135 132 137 139 136 141 145 151 160 167 172 171 167 160 166 172 169 162 174 189 173 171
132 155 210 237 272 295 115 271 298 307 285 293 74 107 273 353 80 91 84 93 101 108 107 119 130 132 134 141 142 153 160 159 152 151 155 158 160 153 143 141 143 123 108 114
152 188 252 256 287 5 159 239 300 297 255 219 206 217 222 61 68 85 89 91 90 94 94 101 118 127 130 133 143 147 138 128 120 126 139 140 134 131 127 125 118 114 109 78
151 176 242 299 41 146 216 264 297 303 280 163 134 92 91 87 90 88 88 87 87 88 81 76 92 116 122 125 124 121 122 118 114 112 114 113 115 117 119 124 121 121 104 73
184 203 238 310 202 239 216 258 287 280 288 139 113 94 83 80 86 84 88 87 82 92 88 74 75 98 111 104 107 115 112 109 106 99 91 94 103 108 107 112 119 116 108 94
236 266 273 315 337 354 11 292 295 284 222 123 124 114 94 83 81 78 78 84 89 95 95 85 77 82 91 99 108 112 108 103 101 98 88 78 74 75 87 95 112 112 111 105
234 264 327 355 16 0 359 4 21 32 58 114 119 112 100 93 88 83 79 76 84 91 97 95 89 85 85 97 109 107 103 102 99 94 92 82 72 56 65 59 63 101 104 106
217 217 194 227 288 349 24 12 25 61 55 63 99 105 96 91 83 79 77 73 76 80 91 94 91 86 84 95 109 112 107 100 94 94 92 92 92 75 59 67 62 64 69 84
226 218 191 218 319 28 90 42 45 68 88 86 83 94 97 90 76 73 69 66 70 73 79 85 87 84 81 88 99 106 110 107 102 99 96 96 99 103 92 68 61 58 58 65
210 151 154 263 208 88 88 66 66 63 74 93 99 98 99 94 85 77 73 69 73 78 75 79 82 79 76 89 97 99 99 98 100 99 99 96 93 93 95 95 82 60 50 55
279 192 189 184 127 97 85 85 80 79 91 95 96 97 99 93 84 76 71 74 76 74 72 76 80 72 69 87 97 99 98 99 100 99 96 94 93 89 88 88 86 78 66 52
160 135 156 143 134 104 87 94 94 98 107 107 97 91 88 89 86 80 74 75 81 75 69 73 73 67 72 87 93 93 95 98 99 101 98 95 92 91 90 88 85 77 64 50
158 163 152 133 123 98 97 105 109 115 115 109 104 99 95 93 88 79 71 65 70 70 67 72 70 69 75 84 91 94 94 95 94 94 93 94 93 92 90 87 83 76 64 48
153 158 153 142 131 119 106 100 107 112 110 107 105 99 97 98 96 88 81 77 72 63 54 59 69 75 80 83 87 92 94 91 90 90 90 90 90 89 89 88 87 83 72 61
116 122 115 112 118 118 107 98 100 102 104 105 102 98 93 91 92 90 84 79 75 66 45 52 71 77 81 83 88 90 93 93 90 87 88 88 86 86 87 88 85 81 77 71
110 109 106 103 105 105 102 101 101 99 101 105 102 96 89 84 85 86 82 71 54 56 66 69 74 75 79 86 90 92 93 94 94 91 89 88 88 87 85 83 82 80 77 74
109 109 105 102 95 88 93 100 103 100 97 98 100 99 93 84 78 80 82 73 37 45 66 70 72 74 76 85 88 91 93 94 94 93 93 93 91 87 84 82 79 77 78 77
103 103 101 98 95 89 86 91 97 99 98 97 95 96 94 86 79 73 65 69 58 60 68 67 73 80 83 83 85 88 90 91 91 90 90 91 92 90 86 84 81 78 78 79
95 99 99 99 100 97 88 87 91 94 94 93 93 95 94 89 82 87 76 51 68 74 74 72 80 82 83 82 82 84 85 86 86 86 86 87 87 88 89 87 83 82 80 78
93 95 97 98 98 96 92 89 88 89 90 88 84 87 94 91 74 64 82 79 77 81 77 74 76 77 78 80 81 81 81 83 85 86 85 85 85 85 86 86 85 83 81 79
92 94 96 98 98 98 99 98 92 88 88 82 74 70 71 81 91 86 81 80 81 81 78 71 72 74 75 79 79 79 77 77 83 87 86 87 87 87 85 82 81 80 79 78
88 87 88 91 97 101 102 100 95 91 93 89 79 73 76 79 84 83 81 79 77 78 77 73 71 71 74 76 77 78 78 78 77 77 81 84 86 86 84 82 80 78 76 74
84 85 88 86 83 87 95 98 100 97 97 101 96 84 83 83 83 83 82 81 79 77 76 73 73 75 77 79 78 77 76 75 75 76 77 77 80 83 84 84 80 77 75 74